�N����,����,����,����,����,�C��,���x,�~����,�S�V����,�ő�u�ԕ���,,,,,
,,,,,,,,,����,����,����,�N��,,
yyyy/mm/dd,hh:mm:ss,(16),16����,m/s,��,%,mm,KW/�u,(16),16����,m/s,Time,,
2018/10/1,1:00:00,14,�k��,1.7,13.8,100,1.5,0,14,�k��,3.7,27,,
2018/10/1,2:00:00,14,�k��,3.1,13.7,99.8,3,0,15,�k�k��,6,25,,
2018/10/1,3:00:00,14,�k��,2.9,13.7,99.6,7,0,14,�k��,6.9,35,,
2018/10/1,4:00:00,14,�k��,3.5,13.8,99.2,5,0,14,�k��,8.6,45,,
2018/10/1,5:00:00,14,�k��,2.9,13.7,99.2,7,0,13,���k��,7.9,1,,
2018/10/1,6:00:00,13,���k��,4.6,14.1,99.3,10,0,14,�k��,7.8,28,,
2018/10/1,7:00:00,14,�k��,3.9,14.1,99.2,9,0.01,14,�k��,6.7,8,,
2018/10/1,8:00:00,14,�k��,5.2,14.5,99.2,11.5,0.01,14,�k��,8.2,56,,
2018/10/1,9:00:00,15,�k�k��,5.9,15.6,98.5,11.5,0.01,15,�k�k��,11.2,52,,
2018/10/1,10:00:00,14,�k��,5,17.1,94.7,2,0.13,15,�k�k��,13.9,22,,
2018/10/1,11:00:00,14,�k��,5.6,19.6,82.6,0,0.42,14,�k��,13,48,,
2018/10/1,12:00:00,13,���k��,4,22.2,74.6,0,0.57,13,���k��,12.8,5,,
2018/10/1,13:00:00,14,�k��,1.6,24.2,72.9,0,0.56,13,���k��,6.1,0,,
2018/10/1,14:00:00,7,��쓌,1.6,23.3,69.6,0,0.64,10,�쐼,6.7,40,,
2018/10/1,15:00:00,5,���쓌,3,20.7,76.3,0,0.38,6,�쓌,6.7,11,,
2018/10/1,16:00:00,1,�k�k��,2.2,22.3,68.8,0,0.17,5,���쓌,5.5,22,,
2018/10/1,17:00:00,4,��,2.5,19.2,85.2,0,0.04,3,���k��,5.2,47,,
2018/10/1,18:00:00,16,�k,1.9,17.6,90.3,0,0,3,���k��,3.9,2,,
2018/10/1,19:00:00,4,��,2.3,17.5,92.5,0,0,3,���k��,6.7,30,,
2018/10/1,20:00:00,3,���k��,3.3,16,94.5,0,0,3,���k��,5.6,40,,
2018/10/1,21:00:00,5,���쓌,0.6,15.6,94.4,0,0,3,���k��,4.6,27,,
2018/10/1,22:00:00,2,�k��,2.9,15.3,97.4,0,0,16,�k,4.4,58,,
2018/10/1,23:00:00,14,�k��,1.2,13.3,98.5,0,0,1,�k�k��,3.4,2,,
2018/10/1,0:00:00,12,��,3.5,16.1,71.7,0,0,12,��,8.1,44,,
2018/10/2,1:00:00,12,��,7.3,16.8,63,0,0,12,��,11.4,51,,
2018/10/2,2:00:00,11,���쐼,3.6,15.2,75.2,0,0,13,���k��,9,3,,
2018/10/2,3:00:00,12,��,4.3,16.1,68.9,0,0,11,���쐼,9.6,37,,
2018/10/2,4:00:00,11,���쐼,2,16.6,66.8,0,0,12,��,8.1,15,,
2018/10/2,5:00:00,2,�k��,2.3,12.7,93,0,0,11,���쐼,7.5,17,,
2018/10/2,6:00:00,6,�쓌,1.7,15.7,83.4,0,0.01,2,�k��,4.8,34,,
2018/10/2,7:00:00,6,�쓌,2.5,15.6,83.6,0,0.03,8,��,5.9,15,,
2018/10/2,8:00:00,3,���k��,1.9,15.9,94.7,0,0.1,7,��쓌,5.4,1,,
2018/10/2,9:00:00,14,�k��,5.5,16.1,81.2,0,0.44,14,�k��,11.7,46,,
2018/10/2,10:00:00,14,�k��,5.2,16.7,80.1,0,0.68,14,�k��,11.7,34,,
2018/10/2,11:00:00,16,�k,4.7,18.2,68,0,0.72,1,�k�k��,10.1,58,,
2018/10/2,12:00:00,15,�k�k��,3.4,18.4,67.1,0,0.77,16,�k,8.7,11,,
2018/10/2,13:00:00,16,�k,2.8,18.4,78.3,0,0.59,15,�k�k��,7.4,27,,
2018/10/2,14:00:00,14,�k��,2.3,18.4,74.2,0,0.37,15,�k�k��,7,4,,
2018/10/2,15:00:00,16,�k,2.9,17.6,73.2,0,0.49,16,�k,6.2,46,,
2018/10/2,16:00:00,1,�k�k��,1.3,16.5,75.8,0,0.08,16,�k,6.5,9,,
2018/10/2,17:00:00,5,���쓌,1.6,15.5,81.5,0,0.04,5,���쓌,2.5,47,,
2018/10/2,18:00:00,8,��,1.6,14.8,91.3,0,0,6,�쓌,3.9,20,,
2018/10/2,19:00:00,8,��,1,13.8,92.2,0,0,8,��,3.8,2,,
2018/10/2,20:00:00,16,�É�,0,11.1,99,0,0,7,��쓌,1.9,7,,
2018/10/2,21:00:00,16,�É�,0.1,9.1,100,0,0,12,��,1.9,31,,
2018/10/2,22:00:00,13,���k��,0.8,8.2,100,0,0,12,��,2.5,34,,
2018/10/2,23:00:00,12,��,1.8,7.3,100,0,0,12,��,2.8,57,,
2018/10/2,0:00:00,12,��,1.9,7.4,100,0,0,12,��,3.9,35,,
2018/10/3,1:00:00,13,���k��,1.9,5.8,100,0,0,13,���k��,3.6,29,,
2018/10/3,2:00:00,12,��,2.2,6.7,100,0,0,13,���k��,4.3,24,,
2018/10/3,3:00:00,13,���k��,1.8,7.5,100,0,0,15,�k�k��,4.2,59,,
2018/10/3,4:00:00,13,���k��,1.4,7,100,0,0,13,���k��,3.9,35,,
2018/10/3,5:00:00,14,�k��,0.6,7.1,97.8,0,0,14,�k��,5.3,25,,
2018/10/3,6:00:00,13,���k��,2.1,8,98.8,0,0.02,14,�k��,3.8,59,,
2018/10/3,7:00:00,14,�k��,1.4,9.6,97.7,0,0.16,14,�k��,4.9,23,,
2018/10/3,8:00:00,16,�É�,0.1,13.4,90.6,0,0.39,13,���k��,2.8,28,,
2018/10/3,9:00:00,9,��쐼,0.8,16.5,72.3,0,0.52,8,��,2,50,,
2018/10/3,10:00:00,5,���쓌,2.5,17.2,72.4,0,0.69,4,��,4.1,26,,
2018/10/3,11:00:00,10,�쐼,2.5,19.6,57,0,0.75,9,��쐼,6.6,38,,
2018/10/3,12:00:00,11,���쐼,5.7,20.8,45.1,0,0.76,12,��,9.4,53,,
2018/10/3,13:00:00,11,���쐼,5.3,20,45.3,0,0.65,11,���쐼,9.3,39,,
2018/10/3,14:00:00,12,��,5.9,20.9,47.3,0,0.59,11,���쐼,11,44,,
2018/10/3,15:00:00,12,��,4.5,19.8,51.8,0,0.31,12,��,12.4,35,,
2018/10/3,16:00:00,12,��,6,19.4,49.5,0,0.24,13,���k��,10.2,56,,
2018/10/3,17:00:00,13,���k��,5.2,19,49.7,0,0.09,12,��,11.5,7,,
2018/10/3,18:00:00,14,�k��,1.6,17.1,62.8,0,0,12,��,7,0,,
2018/10/3,19:00:00,13,���k��,1.4,13.4,79.2,0,0,14,�k��,5.7,16,,
2018/10/3,20:00:00,11,���쐼,0.4,9.5,95,0,0,4,��,1.8,11,,
2018/10/3,21:00:00,12,��,0.9,7.6,96.8,0,0,10,�쐼,1.8,41,,
2018/10/3,22:00:00,13,���k��,1.4,6.5,97.1,0,0,13,���k��,2.2,4,,
2018/10/3,23:00:00,10,�쐼,1.6,6.6,95.2,0,0,12,��,2.9,49,,
2018/10/3,0:00:00,13,���k��,3.3,8.1,81.8,0,0,14,�k��,4.9,56,,
2018/10/4,1:00:00,13,���k��,3.5,7.2,86.6,0,0,14,�k��,5.6,27,,
2018/10/4,2:00:00,12,��,2.6,6,94.6,0,0,13,���k��,4.4,6,,
2018/10/4,3:00:00,13,���k��,3.5,7.2,85.1,0,0,13,���k��,5,52,,
2018/10/4,4:00:00,13,���k��,3,5,90.4,0,0,14,�k��,4.9,8,,
2018/10/4,5:00:00,13,���k��,2.1,4.8,91.4,0,0,13,���k��,4.2,18,,
2018/10/4,6:00:00,13,���k��,1.7,4.6,92.6,0,0.03,13,���k��,2.5,47,,
2018/10/4,7:00:00,13,���k��,1.6,9,78.7,0,0.2,14,�k��,2.9,54,,
2018/10/4,8:00:00,12,��,1.2,12.2,72.2,0,0.4,14,�k��,2.7,11,,
2018/10/4,9:00:00,4,��,1.8,16.8,68.9,0,0.57,4,��,2.8,53,,
2018/10/4,10:00:00,5,���쓌,1.4,17.8,56.7,0,0.7,5,���쓌,3.3,38,,
2018/10/4,11:00:00,6,�쓌,1.9,18,53.7,0,0.78,6,�쓌,3,49,,
2018/10/4,12:00:00,6,�쓌,2.3,18.3,59.6,0,0.79,5,���쓌,3.8,34,,
2018/10/4,13:00:00,6,�쓌,2,18.7,52.6,0,0.75,7,��쓌,4.1,24,,
2018/10/4,14:00:00,7,��쓌,2.3,19.2,53.2,0,0.64,7,��쓌,4,42,,
2018/10/4,15:00:00,9,��쐼,2,18.4,59.6,0,0.5,8,��,4.7,21,,
2018/10/4,16:00:00,9,��쐼,1.3,17.3,52.3,0,0.3,9,��쐼,3.5,19,,
2018/10/4,17:00:00,3,���k��,1,12.4,79.2,0,0.09,8,��,2.2,4,,
2018/10/4,18:00:00,12,��,1.6,9,96.7,0,0,12,��,2.1,58,,
2018/10/4,19:00:00,13,���k��,2.2,8.8,95.5,0,0,12,��,3.2,45,,
2018/10/4,20:00:00,14,�k��,2.7,8.1,92.7,0,0,14,�k��,3.9,8,,
2018/10/4,21:00:00,13,���k��,2.2,8.1,93.2,0,0,14,�k��,5.1,20,,
2018/10/4,22:00:00,13,���k��,1.2,7.3,96,0,0,13,���k��,3.8,32,,
2018/10/4,23:00:00,14,�k��,1.6,8.3,91.4,0,0,14,�k��,4.3,26,,
2018/10/4,0:00:00,13,���k��,1.1,6.2,93.9,0,0,13,���k��,3.6,3,,
2018/10/5,1:00:00,12,��,2.2,4.4,98.9,0,0,12,��,3.2,59,,
2018/10/5,2:00:00,14,�k��,2.4,8.5,88.8,0,0,15,�k�k��,4.6,57,,
2018/10/5,3:00:00,13,���k��,2.2,5.4,94.2,0,0,14,�k��,5.5,22,,
2018/10/5,4:00:00,14,�k��,1.9,7.4,88.1,0,0,14,�k��,3.7,48,,
2018/10/5,5:00:00,13,���k��,2.2,6.5,91.1,0,0,14,�k��,4.6,18,,
2018/10/5,6:00:00,14,�k��,3,6.9,85.7,0,0.03,14,�k��,5.7,47,,
2018/10/5,7:00:00,14,�k��,2.7,8.9,80,0,0.19,13,���k��,6.1,3,,
2018/10/5,8:00:00,14,�k��,2.5,11.9,77.4,0,0.39,14,�k��,5.3,35,,
2018/10/5,9:00:00,10,�쐼,0.5,15.5,68.9,0,0.56,14,�k��,3.9,3,,
2018/10/5,10:00:00,4,��,1.2,17.2,67.4,0,0.65,7,��쓌,2.8,33,,
2018/10/5,11:00:00,6,�쓌,2.8,15.6,74.4,0,0.62,6,�쓌,4,59,,
2018/10/5,12:00:00,6,�쓌,2.6,15.5,71.9,0,0.67,7,��쓌,4.6,44,,
2018/10/5,13:00:00,7,��쓌,2.4,15.5,77.6,0,0.69,6,�쓌,4.7,15,,
2018/10/5,14:00:00,6,�쓌,1.9,15,78.8,0,0.47,6,�쓌,3.8,25,,
2018/10/5,15:00:00,6,�쓌,1.2,14.9,80.7,0,0.34,6,�쓌,2.6,44,,
2018/10/5,16:00:00,16,�É�,0,14.3,81.6,0,0.16,5,���쓌,1.3,27,,
2018/10/5,17:00:00,16,�É�,0.1,12.3,94,0,0.05,8,��,1.2,36,,
2018/10/5,18:00:00,16,�É�,0,10.4,98,0,0,15,�k�k��,0.6,47,,
2018/10/5,19:00:00,13,���k��,1,10.1,99.5,0,0,13,���k��,1.4,55,,
2018/10/5,20:00:00,14,�k��,0.7,8.8,99.3,0,0,13,���k��,1.3,46,,
2018/10/5,21:00:00,13,���k��,0.7,9.9,100,0,0,14,�k��,1.7,25,,
2018/10/5,22:00:00,13,���k��,1.4,9.8,100,0,0,14,�k��,2.2,33,,
2018/10/5,23:00:00,13,���k��,1.4,8.6,99.6,0,0,13,���k��,2,45,,
2018/10/5,0:00:00,13,���k��,1.2,9.6,99.8,0,0,12,��,2.7,14,,
2018/10/6,1:00:00,13,���k��,1.2,9.9,99.4,0,0,13,���k��,2.3,9,,
2018/10/6,2:00:00,13,���k��,1.3,10.3,99,0,0,13,���k��,2.5,13,,
2018/10/6,3:00:00,11,���쐼,1.7,10.4,97.4,0,0,11,���쐼,2.5,59,,
2018/10/6,4:00:00,11,���쐼,0.9,10.8,96.2,0,0,11,���쐼,2.8,1,,
2018/10/6,5:00:00,15,�k�k��,0.9,11.1,94.7,0,0,14,�k��,3.2,41,,
2018/10/6,6:00:00,13,���k��,1.8,11.1,96.7,0,0.01,13,���k��,3.3,29,,
2018/10/6,7:00:00,13,���k��,1.5,11.7,95.1,0,0.03,12,��,2.5,41,,
2018/10/6,8:00:00,13,���k��,1.1,13.2,92.4,0,0.11,14,�k��,3.7,39,,
2018/10/6,9:00:00,15,�k�k��,0.9,15,88.7,0,0.22,16,�k,2.9,42,,
2018/10/6,10:00:00,13,���k��,1.1,15.7,83.4,0,0.24,14,�k��,3.2,16,,
2018/10/6,11:00:00,13,���k��,2.4,16.5,77.3,0,0.3,13,���k��,4.3,33,,
2018/10/6,12:00:00,13,���k��,1,17.1,71.6,0,0.25,13,���k��,3.6,3,,
2018/10/6,13:00:00,16,�k,0.5,17.6,74.4,0,0.26,1,�k�k��,1.8,47,,
2018/10/6,14:00:00,5,���쓌,1.5,16.1,89,0,0.21,4,��,2.4,34,,
2018/10/6,15:00:00,5,���쓌,1,15,92.5,0,0.12,5,���쓌,1.9,25,,
2018/10/6,16:00:00,7,��쓌,0.5,15,93.4,0,0.08,8,��,1.1,53,,
2018/10/6,17:00:00,16,�É�,0,14.4,97.2,0,0.02,9,��쐼,1.2,10,,
2018/10/6,18:00:00,1,�k�k��,0.6,13.9,98.8,0,0,1,�k�k��,0.8,59,,
2018/10/6,19:00:00,11,���쐼,0.7,13.6,99.5,0,0,11,���쐼,1,51,,
2018/10/6,20:00:00,16,�k,1,13.4,99.7,0.5,0,16,�k,1.7,56,,
2018/10/6,21:00:00,13,���k��,0.9,13.3,99.9,0.5,0,13,���k��,6.7,12,,
2018/10/6,22:00:00,14,�k��,1.2,13.2,99.5,0.5,0,15,�k�k��,3,40,,
2018/10/6,23:00:00,13,���k��,1,11.7,93.1,0,0,12,��,2.8,48,,
2018/10/6,0:00:00,14,�k��,2.4,11.4,96.7,0.5,0,15,�k�k��,4,58,,
2018/10/7,1:00:00,14,�k��,2.3,11.1,97.9,0.5,0,13,���k��,3.7,59,,
2018/10/7,2:00:00,15,�k�k��,1.1,11.1,98.7,0,0,14,�k��,3.8,18,,
2018/10/7,3:00:00,13,���k��,2.7,10.8,99.2,1,0,14,�k��,5.1,46,,
2018/10/7,4:00:00,13,���k��,3.8,10.6,99.5,2,0,14,�k��,6.1,59,,
2018/10/7,5:00:00,15,�k�k��,1.5,10.8,99.4,1.5,0,14,�k��,7.5,37,,
2018/10/7,6:00:00,2,�k��,4.9,12.9,100,7,0,3,���k��,10.4,56,,
2018/10/7,7:00:00,16,�k,2.5,11.5,99,4,0.01,2,�k��,8.9,1,,
2018/10/7,8:00:00,14,�k��,3.1,11.4,98.4,3.5,0.04,14,�k��,6.3,29,,
2018/10/7,9:00:00,14,�k��,3.5,11.5,97.8,1.5,0.07,14,�k��,7.4,49,,
2018/10/7,10:00:00,14,�k��,3.9,12.1,96.9,0.5,0.14,14,�k��,8,42,,
2018/10/7,11:00:00,14,�k��,3.9,12.7,95.8,1,0.17,15,�k�k��,7.8,6,,
2018/10/7,12:00:00,14,�k��,3.7,13.6,88.9,0,0.29,14,�k��,8.7,14,,
2018/10/7,13:00:00,16,�k,3.2,15,86.1,0,0.31,15,�k�k��,7.3,19,,
2018/10/7,14:00:00,15,�k�k��,4.2,14.3,86.8,0,0.2,15,�k�k��,9,51,,
2018/10/7,15:00:00,16,�k,2.5,15.1,83.7,0,0.29,15,�k�k��,7.9,8,,
2018/10/7,16:00:00,14,�k��,1.7,14.7,85.3,0,0.14,14,�k��,5.1,22,,
2018/10/7,17:00:00,13,���k��,0.5,14.1,88.3,0,0.02,14,�k��,3.1,10,,
2018/10/7,18:00:00,14,�k��,1,13.7,91,0,0,14,�k��,2.4,50,,
2018/10/7,19:00:00,12,��,1.4,13.2,96.3,0,0,15,�k�k��,2.1,1,,
2018/10/7,20:00:00,3,���k��,4,12,96.1,0,0,3,���k��,6.6,56,,
2018/10/7,21:00:00,16,�k,1,11.9,96.6,0.5,0,2,�k��,7.4,1,,
2018/10/7,22:00:00,14,�k��,0.6,11.8,97.1,0,0,14,�k��,1.6,23,,
2018/10/7,23:00:00,13,���k��,1.5,11.7,98.8,0,0,13,���k��,2,58,,
2018/10/7,0:00:00,12,��,1.4,11.7,98.9,0,0,12,��,2.5,38,,
2018/10/8,1:00:00,14,�k��,0.6,11.6,99.4,0,0,13,���k��,2.2,35,,
2018/10/8,2:00:00,15,�k�k��,0.6,11.6,99.6,0,0,14,�k��,1.7,46,,
2018/10/8,3:00:00,15,�k�k��,0.5,11.5,99.8,0.5,0,15,�k�k��,1.5,8,,
2018/10/8,4:00:00,14,�k��,0.6,11.5,100,0.5,0,13,���k��,1.7,39,,
2018/10/8,5:00:00,1,�k�k��,0.4,11.5,99.9,0.5,0,15,�k�k��,1.3,13,,
2018/10/8,6:00:00,5,���쓌,2,11.9,99.8,0.5,0,5,���쓌,3,48,,
2018/10/8,7:00:00,5,���쓌,2.2,11.8,99.3,0.5,0.03,5,���쓌,3.2,56,,
2018/10/8,8:00:00,7,��쓌,1.5,12.2,99.4,1,0.06,8,��,3.9,59,,
2018/10/8,9:00:00,8,��,2.8,13.2,95.6,0,0.21,7,��쓌,5,56,,
2018/10/8,10:00:00,7,��쓌,2.6,15.5,85.9,0,0.46,7,��쓌,5,57,,
2018/10/8,11:00:00,7,��쓌,2.7,14.9,89.6,0,0.69,7,��쓌,6.1,5,,
2018/10/8,12:00:00,7,��쓌,2.4,15,90.9,0,0.47,7,��쓌,5.6,5,,
2018/10/8,13:00:00,5,���쓌,2.5,14.4,87.7,0,0.47,5,���쓌,4.8,46,,
2018/10/8,14:00:00,5,���쓌,2.5,14.7,89.8,0,0.21,5,���쓌,5.1,3,,
2018/10/8,15:00:00,3,���k��,2.3,14.5,90.7,0,0.16,4,��,3.9,20,,
2018/10/8,16:00:00,2,�k��,2.2,14.2,91.3,0,0.11,3,���k��,3.7,10,,
2018/10/8,17:00:00,4,��,1,12.6,95.2,0,0.04,2,�k��,2.7,10,,
2018/10/8,18:00:00,16,�k,1.2,10.4,99.2,0,0,16,�k,1.6,53,,
2018/10/8,19:00:00,13,���k��,1.4,9.6,100,0,0,12,��,2,41,,
2018/10/8,20:00:00,13,���k��,1.2,9.1,100,0,0,13,���k��,2.1,45,,
2018/10/8,21:00:00,13,���k��,2,9.1,100,0,0,13,���k��,2.5,54,,
2018/10/8,22:00:00,12,��,2.5,8.8,100,0,0,13,���k��,3,54,,
2018/10/8,23:00:00,14,�k��,1.1,10.2,100,0,0,13,���k��,2.5,1,,
2018/10/8,0:00:00,14,�k��,1.2,11.2,100,0,0,13,���k��,2.6,23,,
2018/10/9,1:00:00,14,�k��,1.3,11.7,100,0,0,15,�k�k��,2.9,44,,
2018/10/9,2:00:00,13,���k��,2.3,11.2,100,0,0,13,���k��,2.9,54,,
2018/10/9,3:00:00,13,���k��,1.7,11.1,100,0,0,13,���k��,2.5,2,,
2018/10/9,4:00:00,14,�k��,1.6,10.9,100,0,0,13,���k��,2.9,47,,
2018/10/9,5:00:00,14,�k��,1.6,10.6,100,0,0,14,�k��,3.4,45,,
2018/10/9,6:00:00,14,�k��,0.9,10.7,100,0,0.01,14,�k��,3.1,12,,
2018/10/9,7:00:00,16,�É�,0,11.4,100,0,0.08,14,�k��,2.5,29,,
2018/10/9,8:00:00,5,���쓌,1.6,12.1,100,0,0.14,7,��쓌,3.6,34,,
2018/10/9,9:00:00,3,���k��,1.4,12.6,99.9,0,0.15,3,���k��,2.6,56,,
2018/10/9,10:00:00,2,�k��,2,13.2,98.9,0,0.11,2,�k��,3.9,31,,
2018/10/9,11:00:00,15,�k�k��,0.6,14,96.2,0,0.17,1,�k�k��,3.4,3,,
2018/10/9,12:00:00,16,�É�,0.1,15.7,92,0,0.28,12,��,1.9,46,,
2018/10/9,13:00:00,3,���k��,0.4,16.5,87.7,0,0.43,4,��,2.2,27,,
2018/10/9,14:00:00,14,�k��,2.8,16.7,83.1,0,0.41,14,�k��,4.9,54,,
2018/10/9,15:00:00,15,�k�k��,1.9,16.7,82.5,0,0.45,14,�k��,4.3,8,,
2018/10/9,16:00:00,12,��,0.8,17,79.8,0,0.3,14,�k��,2.5,4,,
2018/10/9,17:00:00,9,��쐼,1.7,14.3,95,0,0.05,8,��,2.7,53,,
2018/10/9,18:00:00,9,��쐼,1.4,13.1,97.7,0,0,9,��쐼,2.5,11,,
2018/10/9,19:00:00,12,��,1.7,11.1,98.6,0,0,9,��쐼,2.6,31,,
2018/10/9,20:00:00,13,���k��,0.8,10.3,99.8,0,0,13,���k��,2.3,34,,
2018/10/9,21:00:00,14,�k��,1.4,9.3,100,0,0,13,���k��,3.1,39,,
2018/10/9,22:00:00,13,���k��,1.2,9.4,100,0,0,14,�k��,3.1,47,,
2018/10/9,23:00:00,13,���k��,1.8,8.4,100,0,0,14,�k��,2.8,42,,
2018/10/9,0:00:00,13,���k��,2.6,8.9,98.4,0,0,14,�k��,4.6,58,,
2018/10/10,1:00:00,13,���k��,1.5,7.4,97.2,0,0,13,���k��,4.3,3,,
2018/10/10,2:00:00,14,�k��,2.5,7.7,93.5,0,0,14,�k��,3.4,55,,
2018/10/10,3:00:00,13,���k��,0.9,7.8,89.7,0,0,14,�k��,3.2,12,,
2018/10/10,4:00:00,12,��,1.7,7.2,90.3,0,0,13,���k��,3.6,59,,
2018/10/10,5:00:00,13,���k��,1.6,7.1,91.4,0,0,13,���k��,3.6,45,,
2018/10/10,6:00:00,14,�k��,2.3,8.7,85.5,0,0.01,13,���k��,4.1,30,,
2018/10/10,7:00:00,15,�k�k��,1.1,9.6,84.5,0,0.08,13,���k��,3.2,8,,
2018/10/10,8:00:00,2,�k��,0.6,13.5,76.4,0,0.26,16,�k,1.8,28,,
2018/10/10,9:00:00,16,�k,0.6,13.5,68.3,0,0.52,7,��쓌,2.3,42,,
2018/10/10,10:00:00,15,�k�k��,0.5,15.6,68.1,0,0.54,10,�쐼,1.9,39,,
2018/10/10,11:00:00,4,��,2.8,16.4,66,0,0.61,4,��,4.9,14,,
2018/10/10,12:00:00,4,��,2.6,16.1,69.8,0,0.53,4,��,4.2,32,,
2018/10/10,13:00:00,3,���k��,3.9,15.7,73.3,0,0.59,4,��,5.8,59,,
2018/10/10,14:00:00,4,��,2.9,14.7,84.5,0,0.41,4,��,5.6,25,,
2018/10/10,15:00:00,3,���k��,2.2,14.2,87.1,0,0.14,3,���k��,4,28,,
2018/10/10,16:00:00,4,��,1.3,13.9,92.9,0,0.05,4,��,3.1,27,,
2018/10/10,17:00:00,2,�k��,0.7,13.5,97,0,0.01,3,���k��,2.2,44,,
2018/10/10,18:00:00,15,�k�k��,0.9,13.2,99,0.5,0,15,�k�k��,1.4,57,,
2018/10/10,19:00:00,9,��쐼,1.1,12.6,95.9,1,0,8,��,3.1,40,,
2018/10/10,20:00:00,11,���쐼,1.4,12,97.8,0,0,8,��,2.9,13,,
2018/10/10,21:00:00,12,��,1.8,11.4,98.2,0,0,13,���k��,2.5,56,,
2018/10/10,22:00:00,13,���k��,2.3,11.2,98.1,0.5,0,12,��,2.8,58,,
2018/10/10,23:00:00,13,���k��,2.3,11.2,98.6,0,0,13,���k��,3.6,58,,
2018/10/10,0:00:00,12,��,1.1,10.9,98.6,0.5,0,13,���k��,3.5,21,,
2018/10/11,1:00:00,14,�k��,1.4,10.8,98.5,0,0,13,���k��,3.1,52,,
2018/10/11,2:00:00,14,�k��,2.4,10.8,97.8,0,0,14,�k��,4.2,54,,
2018/10/11,3:00:00,13,���k��,1.3,10.8,98.3,1,0,13,���k��,8.4,38,,
2018/10/11,4:00:00,14,�k��,1.9,10.8,99.2,1.5,0,14,�k��,4.1,59,,
2018/10/11,5:00:00,14,�k��,1.1,11,99,0,0,14,�k��,4.4,0,,
2018/10/11,6:00:00,14,�k��,0.4,11.2,99.1,0,0,14,�k��,3.1,33,,
2018/10/11,7:00:00,11,���쐼,0.3,11.7,98.9,0,0.04,14,�k��,2.4,16,,
2018/10/11,8:00:00,5,���쓌,0.6,12.4,98.4,0,0.05,14,�k��,2.8,41,,
2018/10/11,9:00:00,15,�k�k��,1.1,12.9,97.9,0,0.07,14,�k��,2.5,5,,
2018/10/11,10:00:00,13,���k��,1.3,12.8,96.6,0,0.08,14,�k��,2.3,57,,
2018/10/11,11:00:00,2,�k��,1.3,13.7,97.2,0,0.07,3,���k��,3.3,57,,
2018/10/11,12:00:00,3,���k��,1.1,13.8,95.7,0,0.08,3,���k��,3.5,24,,
2018/10/11,13:00:00,1,�k�k��,1.3,13.5,98.5,0,0.08,4,��,3.9,10,,
2018/10/11,14:00:00,14,�k��,1.6,13.1,99.3,0,0.05,14,�k��,2.7,52,,
2018/10/11,15:00:00,14,�k��,2.4,12.9,99.5,1.5,0.03,14,�k��,3.8,48,,
2018/10/11,16:00:00,16,�É�,0,12.7,99.2,2,0.02,13,���k��,3.3,7,,
2018/10/11,17:00:00,13,���k��,1.2,12.5,99.3,1,0.01,13,���k��,4.3,13,,
2018/10/11,18:00:00,13,���k��,1.1,12.4,99.2,0.5,0,14,�k��,3.5,42,,
2018/10/11,19:00:00,15,�k�k��,0.8,12.2,99.1,0.5,0,13,���k��,2.4,4,,
2018/10/11,20:00:00,14,�k��,1.2,12.2,99.1,0,0,15,�k�k��,3.1,28,,
2018/10/11,21:00:00,13,���k��,0.6,11.8,98.7,0,0,14,�k��,2.9,1,,
2018/10/11,22:00:00,12,��,0.7,11.7,99.8,1,0,12,��,1.7,33,,
2018/10/11,23:00:00,15,�k�k��,0.6,11.8,100,0,0,15,�k�k��,1.5,50,,
2018/10/11,0:00:00,14,�k��,0.6,11.9,99.9,0.5,0,14,�k��,2.8,18,,
2018/10/12,1:00:00,14,�k��,1.8,12.1,99.6,0,0,14,�k��,3.6,53,,
2018/10/12,2:00:00,16,�k,1.1,12.3,98.5,0,0,14,�k��,3.4,10,,
2018/10/12,3:00:00,16,�É�,0.1,12.3,98.6,0.5,0,14,�k��,4.7,21,,
2018/10/12,4:00:00,14,�k��,2.2,12.4,98.9,1,0,13,���k��,3.8,58,,
2018/10/12,5:00:00,14,�k��,1.4,12.3,99,0,0,15,�k�k��,4,0,,
2018/10/12,6:00:00,13,���k��,2,12.4,99.2,0.5,0,13,���k��,3.3,53,,
2018/10/12,7:00:00,14,�k��,1.7,12.9,97.9,0,0.02,13,���k��,4.2,34,,
2018/10/12,8:00:00,12,��,1.9,13.4,97.5,0,0.06,12,��,2.4,59,,
2018/10/12,9:00:00,15,�k�k��,1.1,13.6,96.8,0,0.08,15,�k�k��,2.2,59,,
2018/10/12,10:00:00,13,���k��,2.1,14.4,92.7,0,0.11,13,���k��,3.7,42,,
2018/10/12,11:00:00,10,�쐼,1.1,16,89.6,0,0.17,14,�k��,3.5,3,,
2018/10/12,12:00:00,9,��쐼,2.4,17,81.2,0,0.4,9,��쐼,4.1,38,,
2018/10/12,13:00:00,9,��쐼,2.3,17.5,74.3,0,0.63,9,��쐼,6.5,47,,
2018/10/12,14:00:00,10,�쐼,2.8,17.3,68.8,0,0.5,11,���쐼,6.9,24,,
2018/10/12,15:00:00,11,���쐼,5.6,17.2,55.4,0,0.32,11,���쐼,7.9,59,,
2018/10/12,16:00:00,12,��,4.9,15.9,50.2,0,0.18,12,��,11.1,24,,
2018/10/12,17:00:00,11,���쐼,5.7,13.9,59.8,0,0.02,11,���쐼,8.7,0,,
2018/10/12,18:00:00,11,���쐼,4.3,13.6,62.6,0,0,11,���쐼,8.9,13,,
2018/10/12,19:00:00,11,���쐼,3.3,11.7,73.5,0,0,10,�쐼,5.7,56,,
2018/10/12,20:00:00,15,�k�k��,1.4,8,91.6,0,0,11,���쐼,3.4,27,,
2018/10/12,21:00:00,13,���k��,1,5.4,97.2,0,0,1,�k�k��,2.7,20,,
2018/10/12,22:00:00,16,�k,0.9,5.6,98.4,0,0,12,��,3.2,24,,
2018/10/12,23:00:00,13,���k��,1.3,4.4,99.2,0,0,13,���k��,2.8,45,,
2018/10/12,0:00:00,14,�k��,2.5,7.5,94.4,0,0,14,�k��,3.7,50,,
2018/10/13,1:00:00,14,�k��,2.5,8.3,96.1,0,0,14,�k��,4.8,5,,
2018/10/13,2:00:00,13,���k��,2.4,5.6,95.9,0,0,14,�k��,4.6,1,,
2018/10/13,3:00:00,13,���k��,1.7,5,96.5,0,0,14,�k��,3.9,18,,
2018/10/13,4:00:00,14,�k��,2.2,4.2,99.4,0,0,14,�k��,3.3,59,,
2018/10/13,5:00:00,11,���쐼,0.3,3.5,97.5,0,0,14,�k��,3.9,26,,
2018/10/13,6:00:00,13,���k��,2.5,3.7,99.9,0,0.02,13,���k��,3.9,10,,
2018/10/13,7:00:00,12,��,1.3,8.5,85.9,0,0.17,13,���k��,3.1,5,,
2018/10/13,8:00:00,15,�k�k��,0.7,12.7,77.4,0,0.35,13,���k��,2.4,17,,
2018/10/13,9:00:00,2,�k��,2.1,15.4,65.3,0,0.53,1,�k�k��,4.9,15,,
2018/10/13,10:00:00,4,��,3.8,14.7,69.4,0,0.66,4,��,6.1,42,,
2018/10/13,11:00:00,6,�쓌,3.5,15.1,64.9,0,0.73,5,���쓌,6.1,20,,
2018/10/13,12:00:00,8,��,3.1,14.7,58.2,0,0.74,6,�쓌,5.6,2,,
2018/10/13,13:00:00,8,��,3.9,14.7,68.5,0,0.69,7,��쓌,7,55,,
2018/10/13,14:00:00,7,��쓌,3.8,14.6,64.4,0,0.59,8,��,7.4,18,,
2018/10/13,15:00:00,8,��,3.2,14,70.4,0,0.44,8,��,6.5,20,,
2018/10/13,16:00:00,8,��,1.9,12.6,74.9,0,0.16,8,��,6.5,21,,
2018/10/13,17:00:00,8,��,1.9,11.6,79.2,0,0.03,8,��,5.6,10,,
2018/10/13,18:00:00,8,��,2.3,11.5,82.5,0,0,8,��,4.1,52,,
2018/10/13,19:00:00,8,��,2.6,12,81.6,0,0,8,��,5.8,41,,
2018/10/13,20:00:00,12,��,1.5,6.9,94.5,0,0,8,��,5.7,4,,
2018/10/13,21:00:00,13,���k��,0.5,5.1,98.7,0,0,12,��,1.9,11,,
2018/10/13,22:00:00,13,���k��,1.3,3.9,99.8,0,0,13,���k��,1.8,19,,
2018/10/13,23:00:00,13,���k��,1,4.7,100,0,0,13,���k��,3,33,,
2018/10/13,0:00:00,13,���k��,2.1,5.6,100,0,0,14,�k��,3.3,46,,
2018/10/14,1:00:00,14,�k��,1.8,6.5,100,0,0,14,�k��,3.7,51,,
2018/10/14,2:00:00,14,�k��,2.1,5.9,98.1,0,0,13,���k��,4,49,,
2018/10/14,3:00:00,14,�k��,2.1,5.7,97.8,0,0,13,���k��,5,15,,
2018/10/14,4:00:00,14,�k��,2.1,5.6,96.8,0,0,14,�k��,3.8,0,,
2018/10/14,5:00:00,13,���k��,1.4,4,98.8,0,0,14,�k��,3.3,9,,
2018/10/14,6:00:00,13,���k��,2.5,4.8,100,0,0.01,13,���k��,2.9,58,,
2018/10/14,7:00:00,14,�k��,1.1,7,95.9,0,0.1,12,��,3.2,18,,
2018/10/14,8:00:00,14,�k��,1.3,9.7,90.3,0,0.29,13,���k��,2.6,10,,
2018/10/14,9:00:00,15,�k�k��,1,11.8,82.6,0,0.44,15,�k�k��,3.2,19,,
2018/10/14,10:00:00,13,���k��,1.3,12.5,80.9,0,0.42,12,��,2.4,49,,
2018/10/14,11:00:00,5,���쓌,1.9,14.6,82.4,0,0.59,4,��,3.8,49,,
2018/10/14,12:00:00,5,���쓌,3,14.1,76.3,0,0.7,5,���쓌,4.7,59,,
2018/10/14,13:00:00,6,�쓌,3.2,14.5,78.4,0,0.67,5,���쓌,5.7,54,,
2018/10/14,14:00:00,7,��쓌,2.8,14.1,77.3,0,0.58,6,�쓌,5.6,44,,
2018/10/14,15:00:00,6,�쓌,2.4,14,80.8,0,0.39,6,�쓌,5,0,,
2018/10/14,16:00:00,6,�쓌,1.1,12.2,88.2,0,0.1,6,�쓌,4.2,11,,
2018/10/14,17:00:00,7,��쓌,1.4,11.6,82.4,0,0.02,7,��쓌,2.8,59,,
2018/10/14,18:00:00,8,��,1,11.2,81.3,0,0,7,��쓌,3.5,22,,
2018/10/14,19:00:00,8,��,0.5,10.6,81.8,0,0,7,��쓌,2.8,10,,
2018/10/14,20:00:00,12,��,1.6,7.8,98,0,0,12,��,2,55,,
2018/10/14,21:00:00,6.6,�쓌,98,0,0,,,,,,,,
2018/10/14,22:00:00,13,���k��,1.9,6.7,98.9,0,0,14,�k��,3.3,53,,
2018/10/14,23:00:00,12,��,2,5.3,98.6,0,0,13,���k��,2.4,54,,
2018/10/14,0:00:00,13,���k��,2.2,5.4,99.5,0,0,13,���k��,2.9,51,,
2018/10/15,1:00:00,13,���k��,2,4.9,99.3,0,0,13,���k��,3.6,40,,
2018/10/15,2:00:00,13,���k��,1,4.7,99.6,0,0,13,���k��,3.3,31,,
2018/10/15,3:00:00,13,���k��,1.7,4.3,100,0,0,14,�k��,2.6,8,,
2018/10/15,4:00:00,12,��,1.8,3.7,100,0,0,13,���k��,3.5,20,,
2018/10/15,5:00:00,13,���k��,1.9,3.6,100,0,0,14,�k��,3.4,29,,
2018/10/15,6:00:00,13,���k��,0.9,3.1,100,0,0.01,14,�k��,2.5,6,,
2018/10/15,7:00:00,13,���k��,0.7,6,100,0,0.12,13,���k��,3,48,,
2018/10/15,8:00:00,12,��,0.8,10.4,91.8,0,0.32,13,���k��,2.5,40,,
2018/10/15,9:00:00,5,���쓌,1.4,12.6,86.9,0,0.42,5,���쓌,2.1,53,,
2018/10/15,10:00:00,6,�쓌,1.4,12.6,87.4,0,0.26,5,���쓌,2.7,12,,
2018/10/15,11:00:00,5,���쓌,2.2,12.7,85.5,0,0.35,6,�쓌,3.5,57,,
2018/10/15,12:00:00,5,���쓌,2.1,12.9,88,0,0.31,6,�쓌,4.4,13,,
2018/10/15,13:00:00,6,�쓌,2.1,13.2,83.2,0,0.19,4,��,3.2,7,,
2018/10/15,14:00:00,8,��,2,13.6,78.7,0,0.24,6,�쓌,3.9,49,,
2018/10/15,15:00:00,7,��쓌,2.5,13.4,81.1,0,0.12,7,��쓌,5.1,51,,
2018/10/15,16:00:00,7,��쓌,3.3,13.3,83.2,0,0.16,7,��쓌,6.4,50,,
2018/10/15,17:00:00,8,��,2,12.2,85.6,0,0.05,6,�쓌,5.6,6,,
2018/10/15,18:00:00,8,��,2.5,12.2,86.3,0,0,8,��,5.3,16,,
2018/10/15,19:00:00,10,�쐼,2.5,11.6,89.3,0,0,8,��,5.5,20,,
2018/10/15,20:00:00,13,���k��,1.7,7.7,98.9,0,0,8,��,4.8,0,,
2018/10/15,21:00:00,14,�k��,2.3,7.7,100,0,0,14,�k��,3.4,57,,
2018/10/15,22:00:00,13,���k��,1.4,5.1,99.1,0,0,14,�k��,3.3,2,,
2018/10/15,23:00:00,14,�k��,2,6.9,100,0,0,15,�k�k��,3.6,54,,
2018/10/15,0:00:00,13,���k��,2.1,4.9,100,0,0,15,�k�k��,3.1,2,,
2018/10/16,1:00:00,14,�k��,1.7,7.1,100,0,0,14,�k��,3.5,41,,
2018/10/16,2:00:00,13,���k��,1.3,6.9,100,0,0,14,�k��,3.8,1,,
2018/10/16,3:00:00,13,���k��,2.2,7.3,100,0,0,14,�k��,3.6,53,,
2018/10/16,4:00:00,13,���k��,1.8,5.1,100,0,0,13,���k��,2.9,43,,
2018/10/16,5:00:00,14,�k��,1.7,5.2,100,0,0,12,��,3.1,14,,
2018/10/16,6:00:00,13,���k��,1.2,6.2,100,0,0.01,13,���k��,3.4,30,,
2018/10/16,7:00:00,14,�k��,0.8,6.9,100,0,0.04,14,�k��,3.3,13,,
2018/10/16,8:00:00,14,�k��,2.6,9.2,100,0,0.17,14,�k��,4.7,7,,
2018/10/16,9:00:00,13,���k��,1.1,11.2,96,0,0.2,14,�k��,3.3,4,,
2018/10/16,10:00:00,14,�k��,1.6,12,94.4,0,0.25,13,���k��,3.2,59,,
2018/10/16,11:00:00,10,�쐼,0.4,14.1,85.4,0,0.45,14,�k��,3.1,1,,
2018/10/16,12:00:00,6,�쓌,2.5,14.7,80.1,0,0.67,7,��쓌,4.1,23,,
2018/10/16,13:00:00,6,�쓌,2.9,15.1,82.7,0,0.66,7,��쓌,5.2,38,,
2018/10/16,14:00:00,7,��쓌,3.3,15,82.1,0,0.52,7,��쓌,7.1,22,,
2018/10/16,15:00:00,10,�쐼,3.6,16.6,61.8,0,0.32,10,�쐼,5.8,52,,
2018/10/16,16:00:00,10,�쐼,2.8,15,62.6,0,0.18,10,�쐼,5.2,20,,
2018/10/16,17:00:00,10,�쐼,3.5,13.8,65,0,0.02,10,�쐼,6.3,22,,
2018/10/16,18:00:00,10,�쐼,3.1,12.9,70.5,0,0,10,�쐼,6.3,0,,
2018/10/16,19:00:00,10,�쐼,2.8,11.7,74.5,0,0,10,�쐼,5.1,14,,